Temp
-10 -10 -10 -10 -10 -10 -10 -10 -10 -10 -11 -11 -11 -10 -10 -10 -10 -10 -10 -10 -10 -10 -10 -10 -10 -10 -10 -10 -10 -10 -10 -10 -10 -10 -10 -10 -10 -10 -10 -10 -10 -9 -10 -10 -10 -10 -10
-10 -10 -10 -10 -10 -10 -10 -10 -10 -10 -11 -11 -11 -11 -10 -10 -10 -10 -10 -10 -10 -10 -10 -10 -10 -10 -10 -10 -10 -10 -11 -11 -11 -10 -10 -10 -10 -10 -10 -10 -10 -10 -10 -10 -10 -10 -10
-10 -11 -10 -10 -11 -11 -10 -11 -11 -11 -11 -11 -11 -11 -10 -10 -10 -10 -10 -10 -10 -10 -10 -11 -11 -10 -10 -10 -10 -10 -10 -10 -10 -10 -10 -10 -10 -10 -10 -10 -10 -10 -10 -10 -10 -10 -10
-11 -11 -11 -11 -11 -11 -11 -11 -11 -12 -12 -12 -11 -11 -11 -11 -11 -11 -11 -11 -10 -10 -10 -11 -11 -10 -10 -10 -10 -10 -10 -10 -10 -10 -10 -10 -10 -10 -10 -10 -10 -10 -9 -9 -9 -11 -12
-11 -11 -11 -11 -12 -11 -11 -12 -12 -12 -12 -12 -11 -11 -11 -11 -11 -11 -11 -11 -11 -10 -11 -10 -10 -10 -10 -10 -10 -10 -10 -10 -10 -10 -10 -10 -10 -10 -10 -10 -10 -10 -10 -10 -10 -12 -12
-12 -12 -12 -12 -12 -12 -13 -13 -12 -12 -12 -12 -11 -12 -12 -11 -11 -11 -11 -11 -11 -11 -11 -10 -10 -10 -10 -10 -10 -10 -10 -9 -10 -10 -10 -10 -10 -10 -11 -11 -11 -11 -11 -10 -11 -12 -12
-13 -13 -13 -13 -13 -13 -13 -13 -13 -12 -12 -12 -12 -12 -12 -12 -12 -12 -11 -11 -11 -10 -11 -11 -10 -11 -10 -10 -10 -10 -10 -10 -10 -10 -10 -10 -10 -11 -11 -11 -11 -11 -12 -12 -12 -14 -16
-13 -13 -13 -13 -13 -13 -13 -13 -13 -12 -12 -12 -12 -12 -12 -12 -12 -12 -11 -11 -11 -11 -10 -10 -11 -10 -10 -11 -11 -10 -11 -11 -11 -11 -11 -12 -13 -13 -13 -13 -15 -19 -20 -21 -20 -18 -19
-13 -13 -13 -14 -13 -13 -13 -13 -13 -12 -13 -13 -13 -12 -12 -12 -12 -12 -11 -12 -11 -11 -11 -11 -10 -11 -11 -11 -11 -11 -11 -11 -11 -11 -12 -13 -15 -16 -19 -20 -21 -21 -22 -23 -23 -21 -22
-13 -14 -14 -14 -14 -14 -13 -13 -13 -13 -13 -13 -12 -13 -12 -12 -12 -12 -12 -12 -11 -12 -11 -11 -11 -11 -11 -12 -12 -12 -12 -12 -12 -13 -15 -18 -19 -21 -22 -23 -23 -23 -24 -24 -25 -24 -23
-13 -14 -14 -14 -14 -14 -14 -13 -13 -13 -13 -13 -13 -13 -12 -12 -12 -12 -12 -12 -12 -12 -12 -12 -12 -12 -12 -12 -12 -13 -13 -13 -14 -17 -19 -21 -22 -23 -24 -26 -27 -27 -28 -27 -26 -27 -27
-13 -14 -14 -14 -14 -14 -14 -13 -13 -13 -13 -13 -13 -12 -12 -12 -12 -12 -12 -12 -12 -12 -13 -12 -12 -13 -13 -13 -14 -15 -15 -15 -18 -20 -22 -23 -25 -27 -28 -28 -30 -31 -30 -30 -29 -29 -29
-12 -13 -14 -14 -14 -15 -14 -14 -14 -13 -13 -13 -13 -13 -13 -13 -13 -12 -12 -12 -13 -13 -13 -13 -13 -13 -14 -14 -15 -16 -18 -19 -21 -21 -23 -23 -26 -29 -30 -31 -31 -31 -31 -31 -30 -30 -29
-13 -14 -14 -14 -14 -14 -14 -14 -14 -13 -13 -13 -13 -13 -13 -13 -13 -13 -13 -13 -13 -14 -14 -14 -14 -15 -15 -15 -17 -19 -21 -22 -23 -24 -25 -26 -27 -30 -31 -32 -32 -31 -31 -31 -31 -30 -29
-13 -14 -14 -14 -14 -14 -14 -14 -13 -13 -13 -13 -13 -13 -13 -13 -13 -13 -13 -14 -14 -14 -14 -14 -15 -16 -16 -17 -19 -21 -23 -23 -25 -26 -26 -28 -27 -31 -32 -32 -32 -31 -31 -31 -31 -31 -30
-13 -14 -14 -14 -14 -14 -14 -14 -14 -13 -13 -13 -14 -14 -13 -13 -13 -14 -14 -14 -14 -15 -15 -15 -16 -16 -17 -19 -21 -23 -24 -24 -26 -27 -28 -29 -29 -31 -32 -32 -32 -32 -31 -31 -32 -31 -31
-13 -14 -14 -14 -14 -14 -14 -14 -14 -14 -14 -14 -14 -14 -14 -14 -14 -14 -15 -15 -15 -15 -16 -16 -17 -18 -20 -21 -24 -25 -25 -25 -26 -27 -29 -30 -31 -31 -32 -32 -32 -32 -32 -32 -32 -32 -32
-14 -14 -14 -14 -14 -14 -14 -14 -14 -14 -14 -14 -14 -14 -14 -14 -14 -15 -15 -15 -15 -16 -16 -17 -18 -20 -21 -22 -24 -26 -26 -26 -27 -28 -28 -31 -31 -32 -32 -32 -32 -32 -32 -32 -32 -32 -32
-14 -14 -14 -14 -14 -14 -14 -14 -14 -14 -14 -14 -14 -14 -14 -14 -14 -15 -16 -16 -16 -17 -17 -18 -20 -21 -22 -23 -24 -26 -27 -28 -28 -29 -30 -31 -32 -32 -33 -33 -33 -33 -32 -32 -32 -32 -32
-14 -14 -14 -14 -14 -14 -14 -15 -15 -14 -14 -15 -15 -14 -15 -15 -15 -16 -17 -17 -17 -17 -18 -19 -21 -22 -24 -25 -26 -26 -27 -28 -29 -29 -30 -32 -33 -33 -33 -33 -33 -33 -32 -32 -32 -32 -32
-14 -14 -14 -14 -14 -15 -15 -15 -15 -14 -15 -15 -15 -15 -15 -15 -16 -17 -17 -17 -18 -19 -20 -21 -22 -23 -24 -25 -26 -27 -28 -29 -30 -30 -31 -32 -33 -33 -33 -33 -33 -33 -33 -33 -33 -33 -32
-14 -15 -14 -14 -14 -15 -15 -15 -15 -15 -15 -15 -15 -15 -15 -16 -17 -18 -18 -18 -19 -20 -21 -22 -23 -24 -25 -25 -26 -27 -28 -28 -30 -31 -31 -32 -32 -33 -33 -33 -33 -33 -33 -33 -33 -33 -32
-15 -15 -14 -14 -15 -15 -15 -15 -15 -15 -15 -15 -15 -15 -16 -17 -18 -18 -19 -19 -20 -21 -22 -23 -24 -25 -25 -26 -27 -28 -29 -29 -30 -31 -32 -32 -32 -33 -33 -33 -33 -33 -33 -33 -33 -33 -33
-15 -15 -15 -15 -15 -15 -15 -15 -15 -15 -15 -15 -16 -16 -17 -17 -18 -19 -19 -20 -21 -22 -23 -24 -25 -25 -26 -27 -28 -28 -29 -30 -31 -31 -32 -32 -33 -33 -33 -33 -34 -34 -34 -34 -34 -34 -33
-15 -15 -15 -15 -15 -15 -15 -15 -15 -15 -16 -16 -16 -16 -17 -18 -19 -19 -20 -21 -22 -23 -24 -25 -25 -26 -27 -27 -28 -29 -29 -30 -31 -32 -32 -33 -33 -33 -34 -33 -34 -34 -34 -34 -34 -34 -34
-15 -15 -15 -15 -15 -15 -15 -15 -15 -16 -16 -16 -17 -17 -18 -19 -19 -20 -21 -22 -23 -24 -25 -25 -26 -27 -27 -28 -29 -30 -30 -31 -32 -32 -33 -33 -33 -34 -34 -34 -34 -34 -35 -35 -35 -35 -34
-15 -15 -15 -15 -15 -15 -15 -15 -16 -16 -16 -17 -17 -18 -19 -19 -20 -21 -22 -23 -24 -25 -25 -26 -26 -27 -28 -29 -29 -30 -31 -31 -32 -32 -33 -33 -34 -34 -35 -35 -35 -35 -35 -35 -35 -35 -35
-15 -15 -15 -15 -15 -15 -15 -16 -16 -16 -16 -17 -17 -18 -19 -20 -21 -22 -23 -24 -25 -25 -26 -26 -27 -28 -28 -29 -30 -30 -31 -31 -32 -32 -33 -33 -34 -34 -35 -35 -35 -35 -36 -36 -36 -36 -36
-15 -15 -15 -15 -15 -15 -15 -16 -16 -16 -16 -17 -18 -19 -20 -21 -22 -23 -24 -24 -25 -26 -26 -27 -28 -28 -29 -29 -30 -31 -31 -32 -32 -32 -33 -33 -34 -35 -35 -35 -36 -36 -36 -36 -36 -36 -36
Height
5784 5783 5783 5783 5781 5780 5779 5777 5775 5772 5771 5769 5767 5764 5762 5760 5757 5754 5752 5749 5746 5744 5741 5738 5735 5733 5731 5730 5729 5727 5724 5723 5720 5719 5717 5714 5712 5707 5706 5705 5703 5696 5700 5697 5697 5696 5696
5781 5779 5779 5779 5778 5776 5774 5773 5770 5768 5767 5765 5763 5760 5758 5755 5753 5750 5747 5744 5741 5738 5735 5733 5730 5728 5726 5725 5724 5722 5720 5717 5714 5711 5708 5706 5703 5698 5695 5694 5691 5689 5685 5687 5684 5683 5684
5778 5776 5775 5774 5773 5772 5770 5768 5766 5764 5762 5761 5759 5756 5754 5750 5748 5745 5742 5739 5736 5733 5730 5727 5724 5722 5720 5718 5715 5714 5712 5709 5706 5703 5699 5695 5691 5687 5684 5680 5679 5674 5669 5668 5671 5669 5667
5775 5774 5772 5769 5769 5768 5766 5764 5762 5760 5758 5756 5754 5752 5749 5746 5743 5740 5737 5734 5731 5728 5724 5721 5718 5716 5713 5710 5708 5705 5701 5698 5695 5691 5687 5682 5678 5673 5668 5664 5661 5656 5655 5654 5656 5651 5651
5773 5771 5768 5766 5764 5763 5762 5760 5758 5755 5754 5752 5750 5746 5744 5741 5736 5734 5731 5728 5725 5721 5718 5714 5712 5709 5706 5703 5699 5695 5692 5688 5683 5678 5674 5668 5663 5657 5650 5644 5638 5636 5632 5634 5636 5631 5625
5769 5768 5765 5763 5761 5760 5758 5756 5754 5752 5750 5747 5745 5741 5738 5735 5731 5728 5725 5722 5719 5716 5712 5707 5704 5703 5697 5694 5689 5684 5679 5676 5670 5664 5659 5652 5645 5637 5630 5619 5618 5612 5606 5608 5611 5608 5597
5765 5763 5762 5760 5758 5756 5754 5752 5750 5748 5745 5742 5739 5736 5732 5729 5726 5723 5719 5716 5712 5710 5707 5701 5697 5692 5686 5682 5679 5674 5668 5661 5657 5649 5642 5633 5625 5615 5604 5595 5584 5579 5572 5573 5576 5580 5567
5759 5759 5758 5756 5755 5753 5750 5748 5746 5743 5740 5738 5735 5731 5728 5724 5720 5716 5713 5708 5704 5700 5693 5689 5684 5679 5674 5670 5664 5660 5653 5646 5637 5630 5620 5610 5597 5581 5571 5560 5553 5552 5543 5543 5542 5544 5546
5754 5754 5753 5752 5750 5748 5746 5744 5741 5738 5735 5733 5729 5725 5722 5718 5714 5711 5705 5701 5696 5691 5686 5680 5674 5668 5661 5655 5647 5641 5635 5625 5615 5603 5592 5581 5566 5554 5544 5535 5529 5522 5518 5519 5518 5521 5524
5750 5749 5748 5746 5745 5743 5741 5739 5736 5733 5731 5727 5724 5719 5715 5712 5709 5703 5699 5694 5688 5682 5675 5670 5662 5655 5648 5639 5631 5621 5612 5603 5590 5577 5562 5549 5534 5524 5518 5509 5500 5500 5500 5497 5492 5497 5505
5743 5743 5742 5741 5739 5737 5736 5734 5732 5729 5726 5722 5718 5713 5709 5704 5699 5695 5690 5683 5677 5671 5663 5657 5648 5639 5630 5624 5612 5602 5589 5578 5565 5551 5539 5527 5514 5505 5496 5489 5483 5481 5477 5476 5477 5476 5479
5738 5736 5736 5735 5733 5732 5730 5729 5727 5724 5721 5716 5713 5708 5702 5697 5692 5687 5681 5673 5667 5660 5649 5643 5633 5624 5615 5607 5594 5581 5568 5553 5544 5534 5524 5512 5502 5491 5481 5475 5474 5470 5466 5466 5468 5466 5462
5732 5730 5730 5729 5728 5725 5724 5723 5721 5718 5715 5711 5706 5701 5696 5691 5684 5678 5671 5664 5657 5647 5639 5630 5620 5611 5601 5589 5577 5563 5550 5533 5525 5516 5510 5502 5491 5480 5474 5469 5468 5466 5462 5457 5458 5459 5458
5725 5726 5725 5724 5721 5719 5718 5717 5715 5712 5709 5705 5699 5694 5688 5683 5675 5669 5661 5654 5646 5637 5627 5617 5607 5597 5587 5575 5563 5547 5532 5519 5509 5501 5491 5483 5481 5473 5471 5466 5460 5462 5458 5457 5454 5454 5452
5720 5720 5719 5718 5716 5714 5712 5712 5709 5706 5702 5696 5692 5686 5680 5674 5667 5660 5652 5644 5634 5625 5616 5607 5596 5585 5573 5559 5546 5533 5521 5510 5499 5488 5483 5472 5473 5469 5463 5461 5458 5458 5455 5454 5449 5450 5449
5715 5714 5713 5711 5710 5708 5707 5706 5703 5700 5695 5690 5685 5679 5673 5667 5659 5651 5643 5633 5624 5615 5605 5595 5583 5573 5559 5547 5535 5520 5511 5504 5493 5483 5475 5470 5461 5464 5460 5457 5456 5453 5451 5450 5447 5444 5442
5708 5708 5707 5705 5704 5703 5701 5699 5696 5692 5688 5684 5678 5672 5666 5658 5651 5642 5633 5625 5614 5605 5595 5583 5571 5561 5547 5537 5524 5512 5503 5496 5488 5481 5471 5462 5458 5459 5453 5453 5451 5450 5447 5445 5443 5441 5438
5701 5702 5701 5699 5698 5697 5695 5693 5689 5685 5681 5676 5670 5664 5657 5649 5643 5633 5623 5613 5605 5594 5583 5573 5562 5550 5536 5528 5518 5506 5498 5488 5482 5474 5468 5459 5454 5451 5450 5448 5447 5445 5443 5441 5438 5438 5435
5696 5696 5695 5694 5691 5690 5688 5686 5682 5679 5674 5669 5663 5656 5648 5640 5632 5622 5612 5604 5594 5583 5573 5563 5552 5540 5529 5521 5513 5502 5494 5483 5475 5468 5461 5455 5451 5447 5446 5445 5443 5441 5439 5436 5434 5431 5429
5689 5689 5688 5687 5685 5683 5682 5679 5675 5671 5666 5661 5654 5647 5639 5630 5622 5613 5603 5594 5583 5573 5564 5554 5544 5533 5524 5512 5502 5498 5490 5480 5471 5464 5456 5450 5446 5444 5442 5440 5438 5436 5434 5432 5429 5427 5424
5683 5683 5682 5681 5680 5677 5675 5672 5668 5663 5658 5653 5645 5637 5629 5621 5612 5603 5593 5583 5573 5564 5555 5546 5535 5528 5520 5511 5501 5491 5482 5474 5465 5458 5452 5446 5442 5440 5438 5436 5433 5431 5429 5427 5424 5422 5419
5677 5677 5676 5675 5673 5670 5668 5664 5660 5656 5650 5643 5636 5629 5621 5612 5603 5593 5584 5575 5566 5556 5549 5539 5530 5520 5512 5505 5497 5489 5480 5471 5463 5454 5447 5441 5437 5434 5431 5430 5427 5424 5423 5421 5418 5415 5413
5671 5669 5669 5668 5666 5663 5661 5656 5652 5647 5640 5634 5626 5619 5612 5603 5593 5585 5576 5566 5558 5549 5541 5532 5524 5515 5506 5498 5489 5481 5473 5465 5458 5451 5444 5437 5432 5427 5423 5421 5418 5417 5415 5413 5410 5408 5405
5664 5663 5662 5661 5659 5656 5653 5649 5644 5638 5632 5626 5618 5610 5601 5593 5584 5576 5567 5559 5550 5542 5534 5526 5518 5510 5503 5494 5485 5477 5468 5460 5454 5447 5441 5434 5428 5423 5418 5414 5411 5409 5406 5404 5402 5399 5398
5658 5657 5655 5654 5652 5649 5646 5642 5636 5631 5624 5617 5609 5601 5592 5584 5576 5568 5559 5551 5543 5534 5526 5517 5511 5503 5496 5489 5481 5474 5467 5459 5451 5444 5438 5431 5425 5420 5415 5410 5407 5403 5399 5396 5394 5393 5389
5651 5650 5648 5646 5644 5641 5638 5634 5628 5622 5615 5607 5599 5591 5583 5575 5568 5560 5552 5544 5536 5528 5519 5512 5505 5497 5491 5483 5476 5468 5460 5453 5446 5440 5434 5429 5422 5417 5411 5407 5402 5397 5394 5390 5387 5385 5381
5644 5643 5641 5639 5637 5634 5630 5625 5619 5613 5605 5598 5590 5582 5573 5566 5559 5551 5544 5535 5527 5520 5513 5507 5499 5492 5485 5478 5471 5464 5458 5452 5445 5439 5433 5426 5419 5414 5409 5404 5399 5395 5391 5386 5384 5383 5376
5637 5636 5634 5632 5629 5626 5621 5616 5610 5603 5596 5588 5580 5572 5565 5556 5550 5543 5535 5527 5520 5513 5506 5499 5494 5486 5479 5473 5467 5461 5454 5448 5441 5435 5429 5423 5417 5411 5405 5401 5397 5391 5387 5383 5379 5375 5371
5629 5628 5626 5624 5621 5617 5612 5606 5600 5593 5586 5578 5571 5563 5555 5549 5541 5534 5526 5520 5514 5506 5500 5494 5489 5482 5475 5469 5463 5457 5451 5444 5438 5432 5425 5420 5414 5407 5402 5397 5392 5387 5383 5378 5374 5370 5367
Wind_Speed
20 22 23 22 21 21 21 22 23 24 24 25 24 25 25 25 25 26 24 24 24 23 24 24 24 24 25 24 24 25 28 30 31 33 35 38 41 44 44 45 46 52 48 50 50 50 51
19 20 22 23 23 23 23 24 24 23 24 25 25 25 26 27 26 25 26 27 26 26 25 23 23 24 26 28 26 27 29 32 34 38 40 43 46 49 51 53 55 55 57 55 57 58 57
19 20 20 22 24 25 25 24 23 23 23 24 24 24 25 28 27 27 27 27 27 27 26 26 27 28 29 32 33 34 36 38 41 44 46 49 51 54 56 60 61 63 67 66 64 63 63
18 19 19 19 22 25 25 24 24 24 24 23 24 25 26 27 28 29 29 28 27 27 28 29 30 31 33 34 36 38 42 44 46 50 53 56 59 62 65 67 68 70 72 73 70 70 70
19 18 19 20 21 22 24 24 23 23 23 24 25 27 29 29 30 29 29 27 27 28 30 31 33 35 37 39 42 44 47 50 52 56 58 62 65 68 72 74 77 78 82 78 76 74 74
19 20 21 21 21 21 22 23 24 24 25 26 27 27 28 28 30 31 31 31 31 32 34 34 36 38 40 43 45 46 50 53 56 59 63 67 72 76 78 81 82 84 87 86 84 82 85
20 19 21 23 21 21 22 23 24 24 25 27 28 28 28 29 30 31 32 34 35 33 33 37 39 40 47 47 49 48 52 58 60 66 70 74 79 81 85 88 91 93 91 91 91 84 82
24 21 21 23 24 24 24 25 25 25 26 28 28 28 29 30 31 33 33 34 35 37 39 41 45 48 48 48 50 54 58 60 62 67 74 77 77 82 86 89 88 80 79 72 78 80 77
25 22 23 24 24 24 23 23 24 26 27 28 30 31 30 32 32 32 34 34 37 41 43 44 45 48 50 55 59 62 64 66 72 78 77 76 77 79 76 75 75 78 77 73 75 70 61
25 24 25 25 25 24 22 22 24 26 28 30 30 30 32 33 34 33 33 37 41 43 45 43 50 51 57 59 62 67 67 73 76 76 73 68 70 68 64 62 64 64 64 66 68 70 77
26 26 26 28 25 24 22 24 25 27 26 28 28 30 33 35 36 35 39 42 44 44 52 51 55 59 64 65 68 68 71 76 76 70 67 63 59 57 56 50 48 48 44 49 53 53 53
30 27 26 27 27 27 25 25 26 24 27 30 30 33 36 38 38 39 41 44 45 50 51 56 60 63 66 65 66 65 66 73 66 60 56 54 48 43 44 43 35 34 37 34 30 32 38
33 29 24 26 28 30 26 26 27 28 32 31 32 36 37 38 40 42 44 47 49 52 57 60 63 65 66 68 67 66 63 66 61 59 52 48 41 32 31 27 26 31 26 29 21 12 22
27 26 24 24 23 26 27 28 27 28 32 30 36 38 37 41 43 46 49 49 51 54 57 62 63 63 65 67 64 62 59 59 54 52 51 49 40 26 21 25 29 18 21 16 21 18 20
28 25 22 23 23 23 22 25 27 29 31 34 38 40 42 45 48 50 50 51 53 58 62 63 64 64 64 63 61 57 54 54 50 50 48 47 40 25 22 21 20 14 15 14 23 23 22
28 23 20 21 23 23 23 26 28 31 33 37 39 40 44 47 48 50 50 53 55 58 61 62 63 65 63 61 57 53 51 50 46 45 45 41 42 21 17 16 14 16 16 19 19 23 24
29 24 22 22 23 24 25 28 30 33 35 39 42 43 46 48 50 52 51 52 56 59 61 61 61 62 57 57 51 49 49 47 43 42 39 38 34 22 18 15 12 14 19 22 26 24 26
23 22 20 23 25 25 26 29 30 33 37 41 43 47 48 50 53 52 52 56 59 60 61 62 59 58 55 54 48 46 44 44 42 41 37 32 31 22 16 14 14 20 16 18 20 20 23
23 22 21 23 25 25 27 29 30 34 39 42 45 47 49 52 52 52 53 55 58 61 61 59 56 55 52 49 47 43 41 41 42 38 35 31 24 20 18 17 17 17 24 19 20 19 20
23 21 22 23 26 28 27 30 32 38 42 43 46 49 51 51 53 51 53 55 57 59 58 56 53 51 47 45 44 41 39 39 39 37 34 29 24 20 20 18 17 19 18 18 18 21 19
21 21 23 27 27 30 31 32 36 40 42 45 48 51 53 53 51 51 54 55 56 56 55 52 51 47 44 43 40 40 39 38 38 34 32 27 25 23 22 20 21 22 22 22 21 21 23
21 23 25 28 30 31 33 35 38 41 44 47 50 52 54 52 51 51 54 53 54 53 51 49 46 43 42 41 39 36 37 38 35 32 30 28 27 25 28 28 31 31 28 28 27 25 26
22 25 28 28 28 31 33 37 40 42 44 48 52 53 54 52 50 50 52 52 51 49 47 45 42 41 40 40 39 39 38 38 35 31 27 27 27 27 29 28 31 33 33 30 27 26 27
21 23 26 27 30 32 35 38 40 43 46 50 53 54 53 51 49 50 50 49 47 45 44 42 41 39 39 39 38 38 38 37 33 30 27 27 26 25 25 25 26 26 27 27 27 27 28
24 25 27 27 30 32 36 37 41 44 48 52 54 54 52 50 48 50 48 47 44 42 40 40 40 38 39 37 36 36 36 36 32 28 28 27 24 23 23 24 23 22 25 26 27 28 30
26 29 28 28 30 34 36 39 42 46 51 53 54 54 51 49 48 48 46 43 42 39 39 39 38 37 36 35 35 35 36 34 32 30 29 27 26 26 24 23 24 24 22 22 22 22 23
25 25 26 28 32 35 38 41 44 49 52 54 54 52 49 47 47 46 43 41 40 38 37 37 36 36 34 34 34 33 34 32 31 30 30 28 26 24 23 23 21 20 22 22 21 20 20
29 28 28 30 34 37 40 43 47 52 55 55 54 51 47 46 45 44 42 40 38 36 36 37 35 34 33 33 32 32 32 32 31 31 31 29 28 27 26 25 24 23 23 23 23 22 22
28 29 30 34 36 39 43 46 51 54 55 55 54 50 46 43 43 42 39 38 35 34 34 33 32 31 31 32 31 31 32 32 32 30 30 30 29 29 28 27 27 27 26 23 23 24 23
Wind_Direction
272 266 270 276 280 287 292 297 299 300 303 309 313 314 316 318 321 323 321 320 320 320 316 310 308 307 303 300 300 292 290 291 292 292 294 295 295 292 290 287 285 287 288 284 282 278 276
292 279 276 278 281 285 290 294 297 300 303 307 312 313 315 316 318 318 316 317 319 320 318 313 307 304 303 303 301 297 294 293 292 294 295 295 296 294 293 292 288 287 284 281 279 280 279
304 295 285 284 286 287 290 292 295 298 302 307 310 312 313 315 316 315 315 317 317 320 319 316 313 310 308 307 306 305 302 299 297 295 295 295 294 291 291 289 288 285 283 281 281 276 273
307 300 295 291 292 293 293 294 297 302 305 309 311 313 312 314 313 314 315 314 315 317 318 316 313 311 308 306 304 302 300 299 298 297 296 294 292 291 290 288 286 282 280 281 280 275 269
308 310 305 299 294 293 295 298 301 303 306 309 312 312 313 314 315 316 314 315 314 313 312 314 315 314 312 312 308 306 303 302 301 297 296 295 295 294 291 288 284 284 284 280 276 271 268
304 305 308 307 304 301 301 303 303 307 311 311 311 312 314 316 315 314 315 315 313 312 314 314 317 314 315 312 308 307 302 300 301 303 302 301 300 297 293 288 285 280 278 276 274 267 264
293 296 301 301 300 302 304 305 308 310 311 311 312 313 315 316 318 319 317 314 314 311 313 314 315 315 314 313 309 307 308 309 308 307 306 303 299 292 286 283 280 278 273 271 268 260 257
280 293 295 298 300 302 304 306 308 309 310 310 312 314 317 319 317 314 315 316 316 317 318 319 320 319 316 314 313 312 313 313 312 310 309 302 291 284 280 275 271 269 268 264 264 261 257
287 285 292 295 299 301 304 308 309 310 313 313 312 311 316 317 318 318 320 322 320 319 318 321 323 319 319 319 319 320 319 318 318 316 311 298 287 281 279 279 276 271 270 262 253 248 247
277 278 288 294 295 297 304 311 312 316 320 319 320 317 317 318 318 321 323 322 321 321 320 326 326 326 325 327 323 323 322 323 321 318 311 300 296 296 292 285 280 275 270 268 267 263 257
271 274 281 291 288 292 301 307 310 320 325 324 321 321 317 320 321 325 324 324 324 325 327 330 331 330 329 330 327 325 326 326 325 320 313 308 305 300 294 290 287 282 276 271 267 267 266
284 273 280 289 289 289 290 299 308 313 324 325 322 324 324 324 325 325 326 327 327 330 335 335 334 333 331 330 327 326 325 326 323 317 312 311 310 304 294 288 290 292 291 286 288 279 269
291 278 284 289 294 287 290 291 300 309 318 321 325 325 325 326 326 328 329 328 330 336 336 336 335 333 332 332 329 328 326 322 322 319 318 319 324 303 290 283 277 296 298 301 301 277 275
298 287 285 294 295 298 290 291 303 311 314 320 327 327 328 328 329 329 329 331 335 337 339 338 335 333 332 332 330 329 328 326 325 326 329 329 332 317 291 286 299 307 293 294 297 286 249
294 282 284 293 294 295 294 298 303 309 315 322 326 327 328 329 328 329 331 333 336 338 337 337 335 334 332 331 331 329 330 329 329 332 332 329 334 323 304 300 302 315 308 294 280 269 273
293 277 283 283 285 287 292 302 304 309 315 322 323 325 327 328 329 330 331 335 336 337 337 337 337 335 334 333 332 332 331 331 333 331 328 326 327 331 310 299 304 292 279 284 283 283 274
291 273 277 284 290 292 297 300 304 307 316 320 321 324 326 327 328 331 333 336 337 337 337 338 337 334 337 334 334 333 331 331 334 329 326 322 322 334 309 307 306 299 289 287 286 291 290
276 265 277 284 291 293 295 299 303 310 317 320 322 323 325 327 327 329 334 337 338 338 339 338 335 337 338 335 336 334 332 332 332 329 327 321 320 318 301 292 301 302 293 298 295 279 280
268 265 272 280 291 294 297 300 305 314 318 319 321 324 326 326 326 330 335 336 337 338 338 337 338 340 338 335 336 335 334 332 329 327 324 323 318 311 303 300 303 296 295 296 302 304 289
260 265 270 284 293 294 299 302 307 314 316 320 322 325 325 326 325 330 334 336 337 338 337 337 341 341 339 337 336 336 336 333 330 326 322 320 314 299 294 296 299 298 298 303 301 298 303
256 270 276 286 290 289 297 303 311 314 318 322 323 325 325 324 325 331 334 336 337 337 338 339 341 340 340 340 338 337 338 337 331 327 321 313 301 293 285 283 282 293 301 297 301 295 300
257 266 274 281 290 289 300 307 311 314 318 321 324 325 323 323 327 331 333 335 336 338 338 340 342 342 341 341 340 342 340 339 335 328 322 320 307 291 280 279 280 286 293 294 295 294 290
263 271 275 286 288 293 302 309 312 315 319 320 322 323 323 323 328 330 333 335 336 337 339 341 342 342 343 342 344 343 343 341 338 333 327 322 318 309 302 294 285 284 290 292 289 290 290
273 278 286 287 289 297 303 309 312 316 319 319 321 322 322 324 328 329 333 333 335 338 339 341 341 343 343 345 344 344 344 342 340 336 335 328 325 324 319 312 306 302 294 289 288 285 282
274 279 286 289 293 299 304 308 315 317 318 319 320 321 321 324 327 328 330 333 335 338 338 341 341 345 345 346 344 344 346 344 343 341 342 335 332 328 326 322 319 310 302 297 292 286 283
271 278 284 287 294 300 304 311 315 317 319 319 320 321 321 324 325 326 329 332 336 337 340 339 341 343 344 345 344 346 347 346 345 344 342 340 338 335 334 329 326 322 320 319 316 309 299
274 279 287 292 295 298 303 311 315 317 318 318 318 319 320 322 324 326 328 332 335 336 337 336 340 342 344 346 345 347 347 346 345 344 342 342 341 338 336 335 331 326 320 321 318 318 316
272 279 291 293 294 299 304 311 315 316 316 316 317 318 319 321 322 324 328 332 332 334 335 336 338 340 344 345 345 346 346 346 344 344 344 344 341 340 339 337 336 331 327 324 322 319 316
269 283 288 289 296 302 306 312 314 314 313 315 315 316 319 319 321 324 326 328 328 331 331 332 335 339 342 342 345 346 345 345 347 345 344 345 344 341 340 338 335 332 330 327 323 320 317